Retour au catalogue

CZ-2C DEB

ActifSSO
NORAD 39627·DEBRIS·🇨🇳 China

Lancé Mar 31, 2014 depuis Jiuquan Satellite Launch Center

Loading…

Prochains Passages (prochaines 24 heures)

TLE

FraisSource: Space-Track

Époque: Sep 14, 2026, 13:37 UTC

1 39627U 14014D   26257.56739270  .00001255  00000-0  39145-3 0  9996
2 39627  98.1366  17.4510 0150876  36.5657 324.5717 14.36135499647831

Suivez CZ-2C DEB en temps réel avec AllMySat

Download on the App Store